| time (UTC) | temp F | wind direction | speed MPH | gust MPH | rain 1hr in | rain 24hr in | rain mn in | humidity % | barometer mb |
| 20260507020051 | 59 | 252 | 4.0 | 11.0 | 0.01 | 0.18 | 0.18 | 1 | 1004.1 |
| 20260507014544 | 59 | 265 | 7.0 | 12.0 | 0.01 | 0.18 | 0.18 | 1 | 1004.3 |
| 20260507013045 | 59 | 225 | 7.0 | 13.0 | 0.01 | 0.18 | 0.18 | 1 | 1004.3 |
| 20260507011534 | 59 | 211 | 8.0 | 15.0 | 0.01 | 0.18 | 0.18 | 1 | 1004.3 |
| 20260507010030 | 59 | 263 | 6.0 | 13.0 | 0.00 | 0.17 | 0.17 | 1 | 1004.4 |
| 20260507004529 | 59 | 284 | 7.0 | 14.0 | 0.00 | 0.17 | 0.17 | 1 | 1004.4 |
| 20260507003026 | 59 | 265 | 7.0 | 16.0 | 0.00 | 0.17 | 0.17 | 1 | 1004.2 |
| 20260507001522 | 59 | 265 | 6.0 | 14.0 | 0.00 | 0.17 | 0.17 | 1 | 1004.2 |
| 20260507000013 | 59 | 228 | 8.0 | 20.0 | 0.00 | 0.17 | 0.17 | 1 | 1004.3 |
| 20260506234539 | 59 | 186 | 5.0 | 16.0 | 0.04 | 0.17 | 0.17 | 1 | 1004.0 |
| 20260506233031 | 59 | 282 | 5.0 | 15.0 | 0.05 | 0.17 | 0.17 | 1 | 1004.0 |
| 20260506231557 | 59 | 217 | 5.0 | 18.0 | 0.06 | 0.17 | 0.17 | 1 | 1003.9 |
| 20260506230055 | 59 | 232 | 8.0 | 15.0 | 0.08 | 0.17 | 0.17 | 1 | 1004.0 |
| 20260506224559 | 59 | 271 | 7.0 | 16.0 | 0.05 | 0.13 | 0.13 | 1 | 1004.1 |
| 20260506223040 | 59 | 232 | 6.0 | 19.0 | 0.05 | 0.12 | 0.12 | 1 | 1004.2 |
| 20260506221535 | 59 | 228 | 9.0 | 19.0 | 0.04 | 0.11 | 0.11 | 1 | 1004.2 |
| 20260506220036 | 59 | 248 | 6.0 | 19.0 | 0.02 | 0.09 | 0.09 | 1 | 1004.3 |
| 20260506214525 | 59 | 244 | 7.0 | 19.0 | 0.02 | 0.08 | 0.08 | 1 | 1004.5 |
| 20260506213021 | 60 | 218 | 7.0 | 16.0 | 0.01 | 0.07 | 0.07 | 1 | 1004.4 |
| 20260506211515 | 60 | 240 | 9.0 | 23.0 | 0.02 | 0.07 | 0.07 | 1 | 1004.7 |
| 20260506210017 | 60 | 239 | 10.0 | 21.0 | 0.02 | 0.07 | 0.07 | 1 | 1004.7 |
| 20260506204507 | 60 | 232 | 8.0 | 16.0 | 0.02 | 0.06 | 0.06 | 1 | 1005.0 |
| 20260506203035 | 60 | 227 | 7.0 | 18.0 | 0.02 | 0.06 | 0.06 | 1 | 1005.0 |
| 20260506201531 | 61 | 259 | 7.0 | 14.0 | 0.02 | 0.05 | 0.05 | 1 | 1005.0 |
| 20260506200023 | 62 | 239 | 8.0 | 18.0 | 0.03 | 0.05 | 0.05 | 1 | 1005.0 |
| 20260506194519 | 62 | 239 | 7.0 | 16.0 | 0.03 | 0.04 | 0.04 | 1 | 1005.0 |
| 20260506193015 | 63 | 226 | 9.0 | 16.0 | 0.04 | 0.04 | 0.04 | 1 | 1005.1 |
| 20260506191510 | 63 | 207 | 6.0 | 15.0 | 0.03 | 0.03 | 0.03 | 1 | 1005.1 |
| 20260506190002 | 64 | 267 | 7.0 | 20.0 | 0.02 | 0.02 | 0.02 | 1 | 1004.9 |
| 20260506184557 | 65 | 258 | 9.0 | 21.0 | 0.01 | 0.01 | 0.01 | 1 | 1005.2 |
| 20260506183100 | 67 | 269 | 10.0 | 26.0 | 0.00 | 0.00 | 0.00 | 4 | 1005.4 |
| 20260506181548 | 69 | 274 | 8.0 | 23.0 | 0.00 | 0.00 | 0.00 | 28 | 1005.5 |
| 20260506180048 | 70 | 316 | 14.0 | 27.0 | 0.00 | 0.00 | 0.00 | 44 | 1005.4 |
| 20260506174537 | 71 | 241 | 14.0 | 33.0 | 0.00 | 0.00 | 0.00 | 46 | 1005.3 |
| 20260506173032 | 72 | 280 | 22.0 | 32.0 | 0.00 | 0.00 | 0.00 | 48 | 1005.2 |
| 20260506171540 | 72 | 216 | 15.0 | 26.0 | 0.00 | 0.00 | 0.00 | 47 | 1005.2 |
| 20260506170059 | 72 | 238 | 8.0 | 28.0 | 0.00 | 0.00 | 0.00 | 46 | 1005.4 |
| 20260506164557 | 71 | 214 | 8.0 | 23.0 | 0.00 | 0.00 | 0.00 | 44 | 1005.6 |
| 20260506163045 | 70 | 252 | 10.0 | 23.0 | 0.00 | 0.00 | 0.00 | 43 | 1005.9 |
| 20260506161539 | 70 | 275 | 11.0 | 23.0 | 0.00 | 0.00 | 0.00 | 42 | 1006.0 |
| 20260506160034 | 70 | 254 | 10.0 | 19.0 | 0.00 | 0.00 | 0.00 | 40 | 1006.4 |
| 20260506154529 | 70 | 238 | 8.0 | 18.0 | 0.00 | 0.00 | 0.00 | 35 | 1006.7 |
| 20260506153055 | 69 | 228 | 10.0 | 18.0 | 0.00 | 0.00 | 0.00 | 30 | 1006.8 |
| 20260506151552 | 69 | 213 | 7.0 | 22.0 | 0.00 | 0.00 | 0.00 | 24 | 1007.1 |
| 20260506150050 | 68 | 247 | 8.0 | 24.0 | 0.00 | 0.00 | 0.00 | 19 | 1007.3 |
| 20260506144548 | 68 | 225 | 10.0 | 19.0 | 0.00 | 0.00 | 0.00 | 13 | 1007.6 |
| 20260506143036 | 67 | 238 | 15.0 | 25.0 | 0.00 | 0.00 | 0.00 | 10 | 1007.5 |
| 20260506141531 | 68 | 244 | 4.0 | 15.0 | 0.00 | 0.00 | 0.00 | 3 | 1007.2 |
| 20260506140029 | 67 | 238 | 13.0 | 21.0 | 0.00 | 0.00 | 0.00 | 1 | 1007.1 |
| 20260506134521 | 66 | 230 | 8.0 | 19.0 | 0.00 | 0.00 | 0.00 | 1 | 1007.2 |
| 20260506133038 | 66 | 214 | 8.0 | 16.0 | 0.00 | 0.00 | 0.00 | 1 | 1007.5 |
| 20260506131523 | 65 | 239 | 10.0 | 22.0 | 0.00 | 0.00 | 0.00 | 1 | 1007.9 |
| 20260506130011 | 65 | 254 | 11.0 | 21.0 | 0.00 | 0.00 | 0.00 | 1 | 1008.0 |
| 20260506124508 | 65 | 224 | 6.0 | 22.0 | 0.00 | 0.00 | 0.00 | 1 | 1007.9 |
| 20260506123005 | 64 | 255 | 9.0 | 20.0 | 0.00 | 0.00 | 0.00 | 1 | 1007.7 |
| 20260506121559 | 63 | 236 | 7.0 | 19.0 | 0.00 | 0.00 | 0.00 | 1 | 1008.0 |
| 20260506120052 | 63 | 254 | 9.0 | 18.0 | 0.00 | 0.00 | 0.00 | 1 | 1007.9 |
| 20260506114556 | 62 | 220 | 10.0 | 20.0 | 0.00 | 0.00 | 0.00 | 1 | 1008.1 |
| 20260506113049 | 62 | 236 | 10.0 | 16.0 | 0.00 | 0.00 | 0.00 | 1 | 1008.2 |
| 20260506111538 | 61 | 213 | 8.0 | 14.0 | 0.00 | 0.00 | 0.00 | 1 | 1008.5 |
| 20260506110035 | 61 | 234 | 10.0 | 18.0 | 0.00 | 0.00 | 0.00 | 1 | 1008.1 |
| 20260506104527 | 60 | 257 | 8.0 | 15.0 | 0.00 | 0.00 | 0.00 | 1 | 1008.2 |
| 20260506103027 | 60 | 234 | 8.0 | 16.0 | 0.00 | 0.00 | 0.00 | 1 | 1008.2 |
| 20260506101519 | 60 | 249 | 8.0 | 14.0 | 0.00 | 0.00 | 0.00 | 1 | 1008.1 |
| 20260506100023 | 60 | 198 | 8.0 | 16.0 | 0.00 | 0.00 | 0.00 | 1 | 1008.0 |
| 20260506094508 | 60 | 214 | 6.0 | 18.0 | 0.00 | 0.00 | 0.00 | 1 | 1008.2 |
| 20260506093004 | 60 | 238 | 7.0 | 16.0 | 0.00 | 0.00 | 0.00 | 1 | 1007.8 |
| 20260506091601 | 61 | 220 | 7.0 | 16.0 | 0.00 | 0.00 | 0.00 | 1 | 1008.0 |
| 20260506090055 | 61 | 231 | 9.0 | 18.0 | 0.00 | 0.00 | 0.00 | 1 | 1008.0 |
| 20260506084553 | 61 | 238 | 9.0 | 15.0 | 0.00 | 0.00 | 0.00 | 1 | 1008.0 |
| 20260506083043 | 61 | 304 | 9.0 | 18.0 | 0.00 | 0.00 | 0.00 | 1 | 1008.0 |
| 20260506081538 | 62 | 240 | 8.0 | 19.0 | 0.00 | 0.00 | 0.00 | 1 | 1008.0 |
| 20260506073025 | 63 | 255 | 11.0 | 22.0 | 0.00 | 0.00 | 0.00 | 17 | 1008.1 |
| 20260506071521 | 63 | 194 | 8.0 | 18.0 | 0.00 | 0.00 | 0.00 | 23 | 1007.9 |
| 20260506061509 | 64 | 212 | 9.0 | 19.0 | 0.00 | 0.00 | 0.00 | 43 | 1007.6 |
| 20260506050105 | 64 | 266 | 8.0 | 15.0 | 0.00 | 0.00 | 0.00 | 48 | 1008.0 |
| 20260506044635 | 64 | 247 | 11.0 | 23.0 | 0.00 | 0.00 | 0.00 | 48 | 1007.9 |
| 20260506043055 | 64 | 241 | 14.0 | 27.0 | 0.00 | 0.00 | 0.00 | 48 | 1008.1 |
| 20260506041553 | 64 | 273 | 12.0 | 23.0 | 0.00 | 0.00 | 0.00 | 49 | 1007.9 |
| 20260506040051 | 64 | 257 | 8.0 | 23.0 | 0.00 | 0.00 | 0.00 | 49 | 1007.9 |
| 20260506034547 | 64 | 224 | 4.0 | 18.0 | 0.00 | 0.00 | 0.00 | 50 | 1007.9 |
| 20260506033045 | 64 | 224 | 7.0 | 15.0 | 0.00 | 0.00 | 0.00 | 51 | 1008.0 |
| 20260506031543 | 64 | 246 | 12.0 | 23.0 | 0.00 | 0.00 | 0.00 | 52 | 1008.0 |
| 20260506030039 | 65 | 260 | 8.0 | 18.0 | 0.00 | 0.00 | 0.00 | 53 | 1008.0 |
| 20260506024507 | 65 | 218 | 6.0 | 16.0 | 0.00 | 0.00 | 0.00 | 54 | 1008.1 |
| 20260506023005 | 66 | 261 | 11.0 | 18.0 | 0.00 | 0.00 | 0.00 | 54 | 1008.0 |
| 20260506021617 | 66 | 224 | 6.0 | 20.0 | 0.00 | 0.00 | 0.00 | 54 | 1008.0 |